Miscellaneous Local Product
Issued by NWS North Platte, NE

Home | Current Version | Previous Version | Text Only | Print | Product List | Glossary On
Versions: 1 2 3 4 5 6 7 8 9 10 11 12 13 14 15 16 17 18 19 20 21 22 23 24 25 26 27 28 29 30 31 32 33 34 35 36 37 38 39 40 41 42 43 44 45 46 47 48 49 50
741
AXUS43 KLBF 291610
MISLBF


WESTERN AND NORTH CENTRAL NEBRASKA HOURLY WEATHER ROUNDUP
NATIONAL WEATHER SERVICE NORTH PLATTE NE
1100 AM CDT THU SEP 29 2016

NOTE: "FAIR" INDICATES FEW OR NO CLOUDS BELOW 12,000 FEET WITH NO
SIGNIFICANT WEATHER AND/OR OBSTRUCTIONS TO VISIBILITY.

NOTE: STATIONS NOT REPORTING VARIABLES SUCH AS SKY/WEATHER OR
PRESSURE ARE PROVIDED BY RAWS AND APRS NETWORKS AND ARE NOT UNDER
NATIONAL WEATHER SERVICE QUALITY CONTROL.

...OBSERVATIONS IN AND NEAR THE EASTERN PANHANDLE OF NEBRASKA...

CITY           SKY/WX    TMP DP  RH WIND       PRES   REMARKS
PINE RIDGE     SUNNY     67  43  41 S9        30.34S
CHADRON        SUNNY     67  43  41 S13       30.32S
ALLIANCE       SUNNY     63  42  46 S13       30.36F
SIDNEY         SUNNY     64  42  44 S15       30.39S
CRESCENT LAKE    N/A     63  43  48 S8          N/A
$$

...OBSERVATIONS IN NORTHERN NEBRASKA AND FAR SOUTHERN SOUTH DAKOTA...

CITY           SKY/WX    TMP DP  RH WIND       PRES   REMARKS
WINNER         FAIR      63  46  54 S14       30.43S
VALENTINE      SUNNY     62  41  46 S14       30.41F
THEDFORD       SUNNY     62  44  52 S12       30.44S
AINSWORTH      SUNNY     60  46  59 S12       30.44S
O`NEILL        SUNNY     58  46  63 S8        30.47F
ORD            SUNNY     57  45  64 SE3       30.46F
BROKEN BOW     SUNNY     58  46  64 S6        30.45F
VALENTINE NWR    N/A     56  42  60 S10         N/A
BUTTE            N/A     56  47  70 SE6         N/A
HALSEY           N/A     57  44  63 S6          N/A
EWING            N/A     58  50  75 CALM        N/A
$$

...OBSERVATIONS IN SOUTHWEST NEBRASKA AND FAR NORTHEAST COLORADO...

CITY           SKY/WX    TMP DP  RH WIND       PRES   REMARKS
WRAY           FAIR      64  37  36 S8        30.41R
HOLYOKE        FAIR      64  39  39 SE10      30.40S
IMPERIAL       SUNNY     62  42  47 SE16      30.41F
OGALLALA       SUNNY    N/A N/A N/A S12G17    30.41S
NORTH PLATTE   SUNNY     59  45  59 SE7       30.44S
MCCOOK         SUNNY     59  45  59 E6        30.44F
LEXINGTON      SUNNY     59  45  60 SE5       30.46S
STAPLETON        N/A     60  45  58 CALM        N/A
GOTHENBURG       N/A     52  43  71 SE5         N/A
CALLAWAY         N/A     52  47  84 S8          N/A
$$

...OBSERVATIONS IN CENTRAL LINCOLN COUNTY AREA...

CITY           SKY/WX    TMP DP  RH WIND       PRES   REMARKS
N.P. AIRPORT   SUNNY     59  45  59 SE7       30.44S
N.P. DOWNTOWN    N/A     61  45  56 MISG        N/A
N.P. SOUTHEAST   N/A     61  46  56 S6          N/A
N.P. HILLCREST   N/A     58  46  65 SE7         N/A
$$

...SOME OBSERVATIONS FROM AROUND THE REGION...

CITY           SKY/WX    TMP DP  RH WIND       PRES   REMARKS
DENVER         MOSUNNY   63  38  39 NW5       30.37S
LARAMIE        SUNNY     63  34  33 SE3       30.44S
CHEYENNE       SUNNY     65  40  39 SW8       30.39S
SCOTTSBLUFF    SUNNY     60  43  53 E12       30.34F
RAPID CITY     SUNNY     61  41  47 SE14      30.31S
BISMARCK       SUNNY     57  48  72 SE13      30.39F
PIERRE         SUNNY     59  45  59 SE14      30.39F
SIOUX FALLS    MOSUNNY   59  49  69 VRB3      30.48S
OMAHA          SUNNY     60  51  72 NW5       30.45S
GRAND ISLAND   SUNNY     58  46  64 VRB3      30.48S
KANSAS CITY    MOSUNNY   63  51  65 N12       30.39R
WICHITA        MOSUNNY   62  49  62 N5        30.43R
OKLAHOMA CITY  MOSUNNY   64  48  56 N12       30.38S
DALLAS         PTSUNNY   72  49  44 N12       30.30R
AMARILLO       SUNNY     63  46  54 SE8       30.46R
DODGE CITY     SUNNY     62  44  51 VRB3      30.45S
HAYS           SUNNY     61  41  48 E5        30.46R
GOODLAND       LGT RAIN  62  43  49 S16       30.42S
$$




USA.gov is the U.S. government's official web portal to all federal, state and local government web resources and services.